This is the latest recevied weather packets stored in our database for station/object AA9VI-10. If no packets are shown the sender has not sent any weather packets the latest 10 day(s).
| Time | Temp. | Humidity | Pressure | Rain* | Wind** | Luminosity | Snow |
|---|---|---|---|---|---|---|---|
| 1777362617 | 12.22° C | 83% | 1005.2 hPa | 0.76 mm | - | - | - |
| 1777362017 | 12.22° C | 84% | 1005.1 hPa | 0.76 mm | - | - | - |
| 1777361417 | 12.78° C | 84% | 1004.9 hPa | 0.76 mm | - | - | - |
| 1777360817 | 12.78° C | 85% | 1004.7 hPa | 1.02 mm | - | - | - |
| 1777360217 | 12.78° C | 85% | 1004.5 hPa | 1.02 mm | - | - | - |
| 1777359617 | 13.33° C | 85% | 1004.4 hPa | 1.27 mm | - | - | - |
| 1777359017 | 13.33° C | 87% | 1004.2 hPa | 1.27 mm | - | - | - |
| 1777358417 | 13.89° C | 88% | 1004.1 hPa | 1.52 mm | - | - | - |
| 1777357817 | 13.89° C | 88% | 1004.2 hPa | 1.52 mm | - | - | - |
| 1777357216 | 14.44° C | 89% | 1004.1 hPa | 1.52 mm | - | - | - |
| 1777356617 | 14.44° C | 89% | 1004.2 hPa | 1.52 mm | - | - | - |
| 1777356017 | 15° C | 90% | 1004 hPa | 1.78 mm | - | - | - |
| 1777355416 | 15° C | 90% | 1004.1 hPa | 1.78 mm | - | - | - |
| 1777354817 | 15.56° C | 90% | 1004 hPa | 2.03 mm | - | - | - |
| 1777354217 | 15.56° C | 91% | 1003.8 hPa | 2.29 mm | - | - | - |
| 1777353617 | 15.56° C | 90% | 1003.8 hPa | 2.79 mm | - | - | - |
| 1777353017 | 15.56° C | 90% | 1003.8 hPa | 3.3 mm | - | - | - |
| 1777352416 | 15.56° C | 90% | 1003.8 hPa | 3.56 mm | - | - | - |
| 1777351817 | 15.56° C | 90% | 1003.8 hPa | 3.3 mm | - | - | - |
| 1777351218 | 15.56° C | 90% | 1003.7 hPa | 2.79 mm | - | - | - |
| 1777350617 | 15.56° C | 90% | 1003.7 hPa | 2.29 mm | - | - | - |
| 1777350017 | 15.56° C | 89% | 1003.6 hPa | 1.52 mm | - | - | - |
| 1777349418 | 16.11° C | 89% | 1004.1 hPa | 0.76 mm | - | - | - |
| 1777348817 | 16.11° C | 89% | 1004.1 hPa | 0 mm | - | - | - |
| 1777348217 | 16.11° C | 89% | 1003.2 hPa | 0 mm | - | - | - |
* Rain latest hour (hover to see other rain measurements)
** Current wind speed in m/s (hover to see current wind gust speed)